sat.trackr.live / text

‹ back to catalog

O3B FM5

NORAD 39188 · 2013-031A

PAYLOAD ACTIVE UNKNOWN

§ Identity

Operator
Country
O3B
Launch date
2013-06-25
Launch site
FRGUI
Launch vehicle
Mass (kg)
RCS (m²)
49.77

Purposes: comms

External: N2YO · Heavens-Above · Gunter

§ Orbital elements

Epoch: 2026-09-19T18:54:49.840704Z

Period
287.93 min
Inclination
0.0804°
Eccentricity
0.0002457
Mean motion
5.00115762 rev/d
Perigee alt
8,062.3 km
Apogee alt
8,069.4 km
Semi-major
14,444.0 km
B*
0.0000e+0
RAAN
316.5641°
Arg perigee
208.6079°
Mean anomaly
194.8374°
Rev number
24,176

§ Raw data

O3B FM51 39188U 13031A   26262.78807686 -.00000027  00000+0  00000+0 0  99932 39188   0.0804 316.5641 0002457 208.6079 194.8374  5.00115762241762

JSON: /api/v1/satellites/39188 · /tle

For live sub-satellite position, see the globe view (requires WebGL).

§ Visibility from observer

Set your observer location to see the next 7 days of passes ≥ 10°. The values pass through the URL so the page stays shareable.

No JS? Fill the form by hand. The geolocation button needs JavaScript.